Weather History for Gainesville, TX

Change the Weather History Date:

Saturday, April 6, 2013

  Actual Average (KDTO) Record (KDTO)
Temperature  
Mean Temperature 62 °F -  
Max Temperature 73 °F 70 °F 86 °F (2011)
Min Temperature 51 °F 47 °F 36 °F (2009)
Degree Days  
Heating Degree Days 3    
Growing Degree Days 12 (Base 50)    
Moisture  
Dew Point 52 °F    
Average Humidity 71    
Maximum Humidity 89    
Minimum Humidity 47    
Precipitation  
Precipitation 0.00 in - - ()
Sea Level Pressure  
Sea Level Pressure 29.92 in    
Wind  
Wind Speed 12 mph (SSE)    
Max Wind Speed 25 mph    
Max Gust Speed 32 mph    
Visibility 10 miles    
Events      
Averages and records for this station are not official NWS values.
T = Trace of Precipitation, MM = Missing Value Source: NWS Daily Summary

Daily Weather History Graph

Daily Weather History Graph

Search for Another Location

Airport:

Trip Planner

Search our weather history database for the weather conditions in past years. The results will help you decide how hot, cold, wet, or windy it might be!

Date:

Astronomy

Apr. 06, 2013 Rise Set
Actual Time 7:09 AM CDT 7:53 PM CDT
Civil Twilight 6:44 AM CDT 8:18 PM CDT
Nautical Twilight 6:14 AM CDT 8:48 PM CDT
Astronomical Twilight 5:43 AM CDT 9:18 PM CDT
Moon 4:43 AM CDT (4/6) 4:32 PM CDT (4/6)
Length of Visible Light 13h 34m
Length of Day
12h 43m
Waning Crescent, 15% of the Moon is Illuminated
Apr 6
Waning Crescent
Apr 10
New
Apr 18
First Quarter
Apr 25
Full
May 2
Last Quarter

Hourly Weather History & Observations

Time (CDT) Temp. Dew Point Humidity Pressure Visibility Wind Dir Wind Speed Gust Speed Precip Events Conditions
12:15 AM 52.7 °F 48.9 °F 87% 30.03 in 10.0 mi SSE 9.2 mph - N/A   Clear
12:35 AM 53.1 °F 49.6 °F 88% 30.02 in 10.0 mi SSE 9.2 mph - N/A   Clear
12:55 AM 52.0 °F 48.7 °F 89% 30.01 in 10.0 mi SSE 10.4 mph - N/A   Clear
1:15 AM 53.2 °F 49.3 °F 86% 30.00 in 10.0 mi SE 11.5 mph - N/A   Clear
1:35 AM 53.2 °F 48.7 °F 85% 29.99 in 10.0 mi SSE 9.2 mph - N/A   Clear
1:55 AM 53.2 °F 49.1 °F 86% 29.99 in 10.0 mi SSE 8.1 mph - N/A   Clear
2:15 AM 53.2 °F 49.3 °F 86% 29.98 in 10.0 mi SSE 9.2 mph - N/A   Clear
2:35 AM 53.2 °F 49.1 °F 86% 29.98 in 10.0 mi SSE 8.1 mph - N/A   Clear
2:55 AM 53.1 °F 48.6 °F 85% 29.96 in 10.0 mi SSE 9.2 mph - N/A   Clear
3:15 AM 51.3 °F 47.1 °F 86% 29.96 in 10.0 mi SSE 8.1 mph - N/A   Clear
3:35 AM 52.0 °F 47.3 °F 84% 29.96 in 10.0 mi South 8.1 mph - N/A   Clear
3:55 AM 51.8 °F 47.3 °F 85% 29.96 in 10.0 mi SSE 9.2 mph - N/A   Clear
4:15 AM 51.4 °F 47.1 °F 85% 29.96 in 10.0 mi SSE 8.1 mph - N/A   Clear
4:35 AM 52.0 °F 47.8 °F 86% 29.95 in 10.0 mi SSE 8.1 mph - N/A   Clear
4:55 AM 53.1 °F 48.6 °F 85% 29.95 in 10.0 mi SSE 9.2 mph - N/A   Clear
5:15 AM 53.2 °F 48.7 °F 85% 29.92 in 10.0 mi SSE 13.8 mph - N/A   Clear
5:35 AM 53.2 °F 47.8 °F 82% 29.96 in 10.0 mi South 9.2 mph - N/A   Clear
5:55 AM 53.2 °F 47.8 °F 82% 29.96 in 10.0 mi SSE 9.2 mph - N/A   Clear
6:15 AM 53.2 °F 47.7 °F 81% 29.95 in 10.0 mi SSE 9.2 mph - N/A   Clear
6:35 AM 53.2 °F 48.2 °F 83% 29.95 in 10.0 mi SSE 9.2 mph - N/A   Clear
6:55 AM 53.2 °F 48.6 °F 84% 29.95 in 10.0 mi SSE 8.1 mph - N/A   Clear
7:15 AM 52.0 °F 48.2 °F 87% 29.93 in 10.0 mi SSE 12.7 mph - N/A   Clear
7:35 AM 53.2 °F 49.1 °F 86% 29.91 in 10.0 mi SSE 18.4 mph - N/A   Clear
7:55 AM 53.2 °F 48.9 °F 85% 29.95 in 10.0 mi South 11.5 mph - N/A   Clear
8:15 AM 53.2 °F 48.7 °F 85% 29.95 in 10.0 mi SSE 11.5 mph - N/A   Clear
8:35 AM 53.4 °F 48.4 °F 83% 29.95 in 10.0 mi SSE 11.5 mph 17.3 mph N/A   Clear
8:55 AM 55.8 °F 49.3 °F 79% 29.95 in 10.0 mi South 16.1 mph - N/A   Clear
9:15 AM 56.8 °F 48.0 °F 72% 29.95 in 10.0 mi South 18.4 mph - N/A   Clear
9:35 AM 58.3 °F 46.9 °F 66% 29.96 in 10.0 mi South 17.3 mph 21.9 mph N/A   Clear
9:55 AM 59.7 °F 46.6 °F 62% 29.97 in 10.0 mi South 18.4 mph 24.2 mph N/A   Clear
10:15 AM 60.8 °F 46.4 °F 59% 29.96 in 10.0 mi South 23.0 mph 26.5 mph N/A   Clear
10:35 AM 63.0 °F 47.1 °F 56% 29.96 in 10.0 mi South 23.0 mph 29.9 mph N/A   Clear
10:55 AM 65.1 °F 48.7 °F 55% 29.96 in 10.0 mi SSE 21.9 mph 25.3 mph N/A   Clear
11:15 AM 65.8 °F 47.5 °F 52% 29.95 in 10.0 mi South 24.2 mph 28.8 mph N/A   Clear
11:35 AM 65.8 °F 47.3 °F 51% 29.95 in 10.0 mi South 21.9 mph 28.8 mph N/A   Clear
11:55 AM 66.2 °F 46.8 °F 50% 29.94 in 10.0 mi South 23.0 mph 27.6 mph N/A   Clear
12:15 PM 67.1 °F 46.2 °F 47% 29.94 in 10.0 mi South 25.3 mph 31.1 mph N/A   Clear
12:35 PM 68.4 °F 47.8 °F 48% 29.93 in 10.0 mi South 19.6 mph 27.6 mph N/A   Clear
12:55 PM 69.1 °F 48.6 °F 48% 29.93 in 10.0 mi South 21.9 mph 32.2 mph N/A   Clear
1:15 PM 70.9 °F 50.4 °F 48% 29.92 in 10.0 mi South 21.9 mph 27.6 mph N/A   Clear
1:35 PM 70.9 °F 51.3 °F 50% 29.91 in 10.0 mi South 18.4 mph 25.3 mph N/A   Clear
1:55 PM 70.9 °F 51.8 °F 51% 29.91 in 10.0 mi South 16.1 mph 23.0 mph N/A   Clear
2:15 PM 70.9 °F 53.1 °F 53% 29.90 in 10.0 mi South 16.1 mph 28.8 mph N/A   Clear
2:35 PM 70.9 °F 52.9 °F 53% 29.89 in 10.0 mi South 21.9 mph 27.6 mph N/A   Clear
2:55 PM 70.9 °F 52.9 °F 53% 29.89 in 10.0 mi South 17.3 mph 21.9 mph N/A   Clear
3:15 PM 70.9 °F 53.4 °F 54% 29.88 in 10.0 mi South 18.4 mph 23.0 mph N/A   Clear
3:35 PM 70.9 °F 53.4 °F 54% 29.88 in 10.0 mi South 17.3 mph - N/A   Clear
3:55 PM 70.9 °F 54.0 °F 55% 29.87 in 10.0 mi SSE 18.4 mph - N/A   Clear
4:15 PM 71.1 °F 54.9 °F 56% 29.86 in 10.0 mi SSE 16.1 mph 23.0 mph N/A   Clear
4:35 PM 73.2 °F 56.5 °F 56% 29.85 in 10.0 mi SSE 20.7 mph 24.2 mph N/A   Clear
4:55 PM 71.2 °F 56.1 °F 59% 29.86 in 10.0 mi SSE 12.7 mph 19.6 mph N/A   Clear
5:15 PM 73.4 °F 57.0 °F 56% 29.85 in 10.0 mi SSE 13.8 mph - N/A   Clear
5:35 PM 70.9 °F 55.9 °F 59% 29.85 in 10.0 mi SSE 12.7 mph - N/A   Clear
5:55 PM 71.6 °F 56.1 °F 58% 29.85 in 10.0 mi SSE 12.7 mph 19.6 mph N/A   Clear
6:15 PM 70.9 °F 56.1 °F 59% 29.85 in 10.0 mi SSE 12.7 mph - N/A   Clear
6:35 PM 70.9 °F 57.4 °F 62% 29.86 in 10.0 mi SSE 9.2 mph - N/A   Clear
6:55 PM 70.9 °F 57.4 °F 62% 29.85 in 10.0 mi SE 9.2 mph - N/A   Clear
7:15 PM 70.3 °F 58.5 °F 66% 29.86 in 10.0 mi SE 9.2 mph - N/A   Clear
7:35 PM 67.1 °F 56.7 °F 69% 29.86 in 10.0 mi SE 9.2 mph - N/A   Clear
7:55 PM 65.8 °F 56.7 °F 72% 29.86 in 10.0 mi SE 8.1 mph - N/A   Clear
8:15 PM 65.8 °F 58.1 °F 76% 29.86 in 10.0 mi ESE 6.9 mph - N/A   Clear
8:35 PM 65.8 °F 58.5 °F 77% 29.86 in 10.0 mi ESE 8.1 mph - N/A   Clear
8:55 PM 65.8 °F 58.5 °F 77% 29.87 in 10.0 mi SE 6.9 mph - N/A   Clear
9:15 PM 65.1 °F 57.9 °F 77% 29.87 in 10.0 mi SE 6.9 mph - N/A   Clear
9:35 PM 63.5 °F 57.2 °F 80% 29.88 in 10.0 mi ESE 8.1 mph - N/A   Clear
9:55 PM 63.5 °F 56.7 °F 78% 29.88 in 10.0 mi SE 9.2 mph - N/A   Clear
10:15 PM 63.5 °F 57.4 °F 80% 29.89 in 10.0 mi SE 9.2 mph - N/A   Clear
10:35 PM 63.3 °F 57.9 °F 83% 29.89 in 10.0 mi SE 9.2 mph - N/A   Clear
10:55 PM 61.3 °F 56.5 °F 84% 29.89 in 10.0 mi SE 9.2 mph - N/A   Clear
11:15 PM 60.8 °F 56.5 °F 86% 29.89 in 10.0 mi SE 5.8 mph - N/A   Clear
11:35 PM 59.4 °F 55.8 °F 88% 29.89 in 10.0 mi SE 6.9 mph - N/A   Clear
11:55 PM 59.5 °F 55.8 °F 87% 29.89 in 10.0 mi SSE 6.9 mph - N/A   Clear